Wind_Speed
36 36 37 38 38 39 40 40 41 41 41 40 40 41 41 41 42 42 43 44 44 44 45 45 47 47 48 49 50 52 53 54 55 55 55 56 56 57 58 58 59 59 60 60
38 38 39 40 39 40 40 40 41 42 42 41 42 42 42 42 42 42 43 44 45 45 46 47 47 48 49 50 51 52 53 54 54 54 55 55 56 56 57 57 58 58 59 59
39 40 41 42 39 40 41 40 41 42 41 42 43 43 42 43 43 43 43 44 45 46 47 48 49 50 51 52 52 52 53 53 53 54 54 55 55 56 56 56 56 56 57 57
40 40 42 41 40 40 40 40 41 41 40 41 41 41 42 42 42 42 42 43 44 45 47 48 49 50 50 51 51 51 51 51 52 53 54 55 55 55 56 55 55 55 55 55
41 42 43 41 39 39 40 41 40 41 41 41 41 41 41 41 41 41 42 42 43 44 46 47 48 49 50 50 50 50 50 51 51 51 52 52 53 53 54 54 54 54 54 54
40 41 42 41 39 39 41 41 40 41 41 42 42 42 42 42 42 42 42 43 43 44 45 46 47 47 48 48 49 49 49 49 50 50 51 51 51 51 52 52 52 53 53 54
39 41 42 40 39 39 40 40 40 40 41 42 42 43 42 42 42 43 43 43 44 45 45 45 46 47 47 47 47 48 48 49 49 50 50 50 49 49 50 50 51 51 52 53
39 41 41 40 40 40 40 40 40 40 41 42 42 42 42 42 43 43 43 44 45 45 45 45 45 46 46 46 46 46 47 47 48 48 48 47 47 48 49 49 49 50 50 51
40 41 40 40 40 40 40 40 40 41 42 42 42 42 42 43 43 44 45 45 45 45 45 45 45 45 45 45 45 45 45 45 46 46 46 46 46 47 47 47 48 48 48 49
39 39 39 39 39 39 40 40 40 41 41 41 42 42 42 43 43 44 44 45 44 44 44 44 43 43 44 44 44 43 43 44 45 45 45 45 45 46 46 45 46 46 46 47
38 38 38 38 38 39 39 40 40 40 40 40 41 41 42 43 43 43 43 43 43 43 43 43 42 42 42 42 43 43 43 43 43 44 44 44 44 44 44 44 45 45 45 45
37 37 37 38 38 38 38 38 38 38 38 39 40 40 40 40 40 41 41 42 42 42 42 42 42 41 41 41 42 42 42 42 42 43 43 43 43 43 43 43 43 43 43 43
37 36 37 37 37 37 38 38 38 38 38 38 38 38 38 39 39 39 39 39 40 40 40 40 40 40 41 41 41 41 41 41 42 42 42 41 41 41 41 41 41 41 40 40
35 36 36 36 36 37 37 37 37 37 37 37 37 37 38 37 38 38 38 38 38 38 39 39 39 40 40 40 39 39 39 40 40 40 40 39 39 39 39 39 38 38 38 38
34 35 35 35 36 36 36 36 36 36 36 36 36 36 36 36 36 36 37 37 37 37 37 38 38 38 38 37 37 37 37 37 37 37 37 37 37 37 37 37 37 37 37 37
33 34 34 34 34 34 35 35 35 35 36 36 35 35 35 35 35 35 35 35 35 36 36 36 35 35 34 34 34 34 34 34 34 34 34 34 34 34 34 35 35 35 35 35
33 33 33 33 33 33 33 33 34 34 34 34 34 34 34 33 33 33 33 33 34 34 34 33 32 32 31 32 32 32 31 31 31 31 31 31 31 31 32 32 33 33 33 33
31 32 32 32 33 33 33 33 33 33 33 32 32 32 32 32 31 31 32 32 32 32 31 30 29 29 30 30 29 29 29 29 29 29 29 29 29 30 30 31 31 31 32 32
31 31 32 32 31 32 31 31 31 31 31 31 31 30 30 31 30 30 30 30 29 28 28 28 28 28 28 28 28 28 28 28 28 28 29 29 29 29 29 30 30 30 31 31
30 30 30 30 30 30 30 30 30 30 30 29 29 28 28 29 29 28 27 27 27 27 27 27 27 27 27 27 27 27 26 26 26 27 27 27 28 28 28 28 28 28 29 30
28 29 29 29 30 29 29 29 28 28 27 27 27 27 27 27 27 27 27 27 27 28 27 27 27 27 27 26 26 25 25 25 25 25 25 25 26 26 26 26 26 27 27 27
27 28 28 29 29 28 28 27 27 27 26 26 26 26 26 27 27 27 27 27 27 27 27 27 26 26 26 26 26 25 25 25 25 25 25 25 25 25 25 25 25 25 26 26
27 27 27 27 27 27 26 26 26 26 26 26 26 26 26 26 26 26 26 26 27 27 27 27 27 27 26 26 26 26 26 26 26 25 25 25 25 25 25 25 25 26 26 26
26 26 26 26 26 25 26 26 26 26 26 26 26 26 26 26 26 26 26 26 27 27 27 27 27 27 26 26 26 27 26 26 26 26 25 25 25 25 25 25 26 26 26 26
25 25 25 25 25 25 26 25 25 25 25 26 26 26 26 26 26 26 26 27 27 27 27 27 27 27 26 26 26 26 26 25 25 25 25 25 25 25 25 26 26 26 26 26
25 25 25 25 26 26 26 26 25 25 25 26 26 26 26 27 26 26 26 26 26 26 26 26 26 26 26 26 26 25 25 25 25 25 25 25 26 26 26 26 26 26 26 26
25 25 25 25 26 26 26 25 25 25 25 25 25 26 26 26 25 25 26 26 26 25 26 25 25 26 26 25 25 25 25 25 25 25 25 25 26 26 27 26 26 26 26 25
Wind_Direction
279 280 281 280 278 276 276 277 277 279 279 279 279 279 279 279 278 277 276 276 276 274 274 274 273 273 273 272 272 271 271 270 269 269 268 268 267 267 267 267 267 266 266 265
279 280 281 281 279 278 278 278 279 278 278 279 278 278 279 279 279 279 277 276 276 275 275 274 274 274 274 274 274 273 272 271 270 269 268 268 268 268 267 267 267 266 266 266
282 282 282 281 283 281 279 279 279 279 279 279 279 279 279 280 280 280 279 278 277 277 276 276 275 275 275 275 275 274 273 271 270 269 268 268 268 268 268 268 267 267 266 266
284 283 282 285 284 282 281 279 280 280 279 280 279 279 279 280 280 280 280 280 279 279 279 278 278 277 277 276 276 275 274 272 271 270 269 269 268 268 268 267 267 267 266 265
284 284 284 285 286 285 282 280 280 280 280 280 280 280 280 280 280 280 280 281 281 281 281 280 279 278 278 277 276 275 274 273 273 271 270 270 270 269 268 268 267 266 265 265
284 284 285 287 287 285 284 283 282 281 280 281 281 281 281 281 281 281 282 282 283 283 283 282 281 280 279 278 277 276 275 274 273 272 272 271 270 270 269 268 267 266 265 265
284 284 285 287 287 287 285 285 285 283 282 281 281 282 282 282 282 281 282 283 284 284 284 284 283 281 280 279 278 276 275 274 273 273 272 271 270 269 269 268 268 267 267 267
284 285 286 287 286 285 285 284 283 282 282 281 281 282 282 282 282 282 283 283 284 284 285 285 284 283 282 280 279 277 276 275 274 273 272 272 271 271 270 269 268 268 268 268
285 286 286 285 284 284 284 283 282 282 282 282 282 282 282 282 282 283 283 283 284 285 285 285 285 284 282 281 280 278 277 276 274 273 272 272 272 271 271 270 270 269 268 268
287 287 285 284 283 283 282 283 284 284 284 283 283 283 283 283 283 283 283 283 283 284 285 285 285 284 283 282 280 279 278 276 275 273 273 272 272 272 271 270 270 269 269 269
287 288 286 284 283 283 284 284 284 285 285 285 285 285 285 285 284 283 283 284 285 285 285 285 284 284 283 282 280 279 278 277 275 274 274 273 273 273 272 271 271 271 271 271
287 287 286 285 284 284 285 286 287 287 288 287 286 286 287 287 286 285 284 285 285 285 285 285 285 284 284 283 281 279 279 278 276 276 275 274 274 273 272 273 273 272 272 271
286 285 284 285 285 285 287 288 288 289 289 288 288 287 287 288 288 287 286 286 286 286 286 286 285 285 284 283 282 281 280 279 278 277 276 275 273 272 272 272 273 272 271 272
286 285 285 285 285 286 287 288 288 288 288 289 288 289 289 289 289 289 289 288 287 287 287 287 286 286 285 284 283 282 280 279 278 277 277 275 274 273 273 272 272 272 273 273
287 287 287 287 287 288 289 289 288 287 288 289 289 290 290 290 291 291 291 290 290 289 289 289 289 288 287 285 284 282 281 280 278 277 276 275 274 274 274 273 272 272 273 274
290 290 290 290 290 290 290 289 289 289 289 289 290 291 291 292 292 292 292 292 292 292 291 291 290 289 288 287 285 283 282 281 279 278 276 275 274 274 273 273 273 273 273 273
292 292 292 292 292 291 291 290 289 290 291 290 290 291 293 293 293 293 293 293 293 293 293 292 292 291 290 289 287 285 283 282 280 279 278 276 275 274 274 274 274 273 273 273
294 294 295 295 294 293 293 292 291 291 291 291 290 291 293 295 295 295 295 295 295 295 295 294 293 293 292 292 290 288 286 284 282 280 279 278 277 276 276 276 275 274 274 275
295 295 296 296 295 294 294 294 293 292 292 292 292 293 294 296 296 296 296 296 297 298 298 297 296 296 295 294 292 290 288 286 284 283 281 279 278 277 278 277 277 277 276 276
297 297 296 296 296 296 295 294 295 295 294 294 293 294 294 296 297 297 297 297 298 299 299 299 298 297 296 295 294 292 290 288 287 285 283 281 279 279 279 279 279 279 278 278
299 298 298 298 298 297 296 296 296 297 296 296 295 295 296 297 297 298 298 298 298 299 299 300 299 298 297 296 294 292 291 290 289 287 285 284 282 281 281 281 281 280 280 280
299 299 299 299 299 299 298 297 297 297 297 297 296 296 297 298 298 299 299 299 299 300 300 300 300 299 297 295 293 292 291 291 290 288 287 286 285 284 283 283 283 283 283 282
300 300 299 300 300 302 301 300 299 298 297 296 296 297 298 299 298 299 300 300 300 300 301 301 301 299 297 295 293 292 292 291 290 289 288 287 286 285 285 285 285 285 285 284
302 301 301 302 303 303 302 301 300 300 299 298 297 297 298 299 299 299 300 300 300 300 300 300 300 300 298 296 294 293 292 291 290 289 288 287 287 286 286 286 286 286 286 285
303 304 305 306 305 304 303 302 302 301 300 299 299 299 299 300 300 300 301 301 301 301 301 301 301 300 299 297 295 294 292 292 291 290 289 288 288 287 287 286 286 286 286 286
305 305 306 307 307 307 304 303 303 302 301 301 300 301 301 301 301 301 302 302 303 303 303 302 301 300 299 297 296 294 293 292 292 290 289 289 288 288 287 287 287 286 286 285
306 306 306 307 307 307 305 304 303 303 302 302 303 303 303 302 301 301 301 303 304 304 304 304 303 301 300 299 297 296 294 294 293 292 291 291 290 289 288 288 287 286 285 284
Height
5599 5598 5596 5594 5593 5591 5589 5587 5585 5585 5583 5583 5579 5576 5574 5572 5570 5568 5567 5565 5564 5563 5561 5560 5558 5557 5556 5554 5553 5551 5550 5549 5548 5546 5546 5545 5544 5544 5543 5543 5542 5542 5541 5541
5589 5587 5584 5582 5582 5580 5578 5576 5574 5572 5571 5570 5567 5564 5562 5560 5557 5556 5554 5552 5551 5549 5548 5546 5544 5543 5541 5539 5537 5536 5534 5533 5531 5530 5530 5529 5528 5527 5527 5526 5525 5525 5525 5525
5576 5575 5571 5570 5572 5569 5566 5564 5562 5559 5560 5556 5554 5552 5549 5547 5545 5543 5541 5539 5537 5535 5534 5532 5530 5528 5526 5524 5522 5520 5518 5517 5515 5514 5513 5513 5512 5511 5510 5509 5509 5508 5508 5508
5564 5562 5559 5563 5559 5556 5553 5552 5549 5547 5545 5543 5541 5539 5537 5534 5532 5530 5528 5526 5524 5522 5520 5518 5515 5513 5511 5508 5506 5504 5502 5501 5500 5498 5497 5496 5495 5494 5493 5493 5492 5492 5492 5492
5551 5548 5546 5549 5547 5543 5540 5539 5538 5535 5533 5530 5528 5526 5524 5522 5519 5517 5515 5513 5511 5508 5506 5503 5500 5498 5495 5493 5491 5489 5487 5485 5484 5483 5481 5480 5479 5478 5477 5476 5476 5475 5475 5475
5540 5536 5534 5537 5534 5530 5527 5526 5526 5522 5520 5518 5515 5514 5513 5509 5507 5504 5502 5500 5497 5494 5492 5489 5486 5483 5481 5478 5476 5474 5472 5470 5468 5466 5465 5464 5462 5461 5461 5460 5460 5459 5459 5459
5528 5523 5522 5524 5521 5517 5516 5516 5512 5509 5507 5505 5503 5501 5499 5496 5494 5491 5489 5486 5483 5481 5478 5475 5472 5469 5466 5463 5461 5459 5456 5454 5452 5451 5449 5448 5446 5446 5445 5444 5444 5444 5444 5444
5517 5513 5514 5511 5508 5506 5504 5501 5499 5496 5494 5492 5490 5487 5485 5483 5480 5477 5475 5472 5469 5466 5463 5460 5457 5455 5452 5449 5446 5443 5441 5439 5437 5435 5434 5432 5431 5430 5429 5429 5428 5428 5428 5428
5506 5505 5501 5498 5496 5493 5491 5488 5486 5483 5481 5479 5476 5474 5472 5469 5467 5464 5461 5458 5455 5452 5449 5446 5443 5440 5437 5434 5431 5429 5426 5424 5422 5421 5419 5418 5417 5416 5415 5414 5413 5413 5412 5412
5493 5492 5489 5486 5483 5481 5479 5476 5473 5471 5468 5465 5463 5460 5458 5455 5453 5450 5447 5444 5441 5438 5435 5432 5429 5426 5423 5420 5417 5414 5412 5410 5408 5407 5405 5403 5402 5401 5400 5399 5398 5398 5397 5397
5481 5480 5476 5474 5471 5469 5466 5464 5461 5458 5456 5453 5450 5447 5444 5441 5438 5435 5433 5430 5427 5424 5421 5418 5415 5412 5409 5406 5403 5401 5398 5396 5394 5393 5391 5389 5388 5386 5385 5385 5384 5383 5383 5382
5471 5468 5465 5463 5460 5457 5454 5452 5449 5446 5443 5440 5437 5434 5431 5428 5425 5422 5419 5416 5413 5410 5408 5405 5402 5399 5396 5393 5390 5387 5385 5383 5381 5379 5377 5376 5374 5373 5372 5371 5370 5369 5368 5368
5459 5456 5453 5450 5448 5446 5443 5440 5437 5434 5431 5428 5425 5422 5419 5416 5412 5409 5406 5403 5400 5397 5394 5391 5388 5385 5382 5380 5377 5374 5372 5370 5367 5365 5364 5362 5361 5360 5359 5358 5357 5356 5355 5354
5446 5444 5441 5439 5437 5434 5431 5429 5426 5423 5420 5417 5413 5410 5407 5404 5400 5397 5394 5391 5388 5385 5382 5379 5376 5372 5369 5367 5364 5361 5359 5357 5354 5353 5351 5349 5348 5347 5346 5346 5345 5344 5343 5342
5435 5432 5430 5427 5425 5423 5420 5417 5414 5411 5408 5405 5402 5399 5396 5392 5389 5386 5383 5379 5376 5373 5370 5366 5363 5360 5357 5354 5351 5349 5346 5344 5342 5340 5339 5337 5336 5335 5334 5333 5333 5332 5331 5330
5424 5421 5419 5416 5414 5411 5409 5406 5403 5400 5397 5394 5391 5388 5384 5381 5378 5375 5372 5368 5365 5362 5358 5355 5352 5348 5345 5342 5340 5337 5335 5333 5331 5329 5327 5326 5325 5324 5323 5322 5321 5320 5319 5319
5414 5411 5409 5406 5403 5400 5398 5395 5392 5389 5386 5383 5380 5377 5374 5371 5367 5364 5361 5358 5354 5351 5347 5344 5341 5338 5335 5332 5329 5327 5325 5322 5320 5319 5317 5315 5314 5313 5312 5311 5310 5309 5308 5307
5405 5402 5399 5396 5393 5390 5387 5384 5381 5378 5375 5372 5369 5366 5364 5361 5358 5354 5351 5348 5344 5341 5337 5334 5331 5328 5325 5322 5320 5317 5315 5313 5311 5309 5307 5306 5304 5303 5302 5301 5299 5298 5297 5296
5395 5392 5389 5386 5383 5380 5377 5374 5371 5368 5365 5362 5359 5357 5354 5351 5348 5345 5342 5338 5335 5332 5329 5325 5322 5319 5316 5313 5311 5308 5306 5304 5301 5300 5298 5296 5294 5293 5292 5290 5289 5288 5287 5286
5386 5383 5380 5377 5374 5371 5368 5364 5361 5358 5355 5352 5350 5347 5345 5342 5339 5336 5333 5330 5327 5324 5321 5317 5314 5311 5307 5305 5302 5299 5297 5295 5293 5291 5288 5287 5285 5284 5282 5281 5279 5278 5277 5276
5377 5374 5371 5368 5365 5362 5359 5355 5352 5349 5346 5344 5341 5339 5336 5334 5331 5328 5325 5322 5319 5315 5312 5309 5306 5302 5299 5296 5294 5291 5289 5286 5284 5282 5280 5278 5276 5275 5273 5272 5270 5269 5267 5266
5368 5366 5363 5359 5356 5353 5350 5347 5344 5341 5338 5336 5333 5331 5328 5325 5322 5319 5316 5313 5310 5307 5304 5301 5297 5294 5291 5288 5285 5283 5281 5278 5276 5274 5272 5270 5268 5266 5264 5263 5261 5260 5258 5257
5360 5358 5354 5351 5348 5345 5341 5338 5336 5333 5330 5328 5325 5323 5320 5317 5314 5311 5308 5305 5302 5299 5296 5292 5289 5286 5283 5280 5277 5275 5272 5270 5267 5265 5263 5261 5259 5258 5256 5254 5252 5251 5249 5247
5353 5350 5347 5343 5340 5337 5334 5331 5328 5325 5322 5320 5317 5315 5312 5309 5306 5303 5300 5297 5294 5290 5287 5284 5281 5277 5274 5271 5269 5266 5264 5261 5259 5256 5254 5252 5251 5249 5247 5245 5244 5242 5240 5238
5345 5342 5339 5336 5333 5330 5326 5323 5320 5317 5315 5312 5309 5306 5304 5301 5298 5295 5292 5289 5285 5282 5279 5275 5272 5269 5266 5263 5260 5257 5255 5252 5250 5248 5246 5244 5242 5240 5238 5236 5235 5233 5231 5229
5338 5335 5332 5329 5325 5322 5319 5316 5313 5310 5307 5304 5301 5298 5295 5292 5289 5286 5283 5280 5277 5274 5270 5267 5264 5260 5257 5254 5251 5248 5246 5244 5241 5239 5237 5235 5233 5231 5229 5227 5225 5223 5221 5219
5331 5327 5324 5321 5318 5315 5311 5308 5305 5302 5299 5296 5294 5290 5287 5284 5281 5278 5275 5272 5269 5266 5262 5259 5256 5252 5249 5246 5243 5240 5238 5235 5233 5230 5228 5226 5224 5222 5220 5218 5216 5214 5212 5210